| time (UTC) | temp C | wind direction | speed KPH | gust KPH | rain 1hr cm | rain 24hr cm | rain mn cm | humidity % | barometer mb |
| 20260901063005 | 17 | 241 | 0.0 | 9.7 | 0.00 | 0.00 | 0.00 | 62 | 1009.5 |
| 20260901062504 | 17 | 215 | 3.2 | 9.7 | 0.00 | 0.00 | 0.00 | 61 | 1008.5 |
| 20260901062005 | 18 | 217 | 0.0 | 3.2 | 0.00 | 0.00 | 0.00 | 61 | 1008.5 |
| 20260901061005 | 18 | 192 | 0.0 | 8.0 | 0.00 | 0.00 | 0.00 | 59 | 1008.5 |
| 20260901060505 | 18 | 238 | 0.0 | 0.0 | 0.00 | 0.00 | 0.00 | 59 | 1008.5 |
| 20260901060005 | 18 | 220 | 0.0 | 0.0 | 0.00 | 0.00 | 0.00 | 57 | 1008.5 |
| 20260901055505 | 18 | 215 | 0.0 | 3.2 | 0.00 | 0.00 | 0.00 | 57 | 1008.5 |
| 20260901055005 | 19 | 223 | 0.0 | 3.2 | 0.00 | 0.00 | 0.00 | 57 | 1008.5 |
| 20260901054005 | 19 | 238 | 0.0 | 0.0 | 0.00 | 0.00 | 0.00 | 55 | 1008.5 |
| 20260901053505 | 20 | 215 | 0.0 | 0.0 | 0.00 | 0.00 | 0.00 | 54 | 1008.5 |
| 20260901053005 | 20 | 215 | 0.0 | 0.0 | 0.00 | 0.00 | 0.00 | 52 | 1008.5 |
| 20260901052505 | 20 | 215 | 0.0 | 4.8 | 0.00 | 0.00 | 0.00 | 51 | 1008.5 |
| 20260901052005 | 20 | 215 | 0.0 | 4.8 | 0.00 | 0.00 | 0.00 | 50 | 1008.5 |
| 20260901051504 | 20 | 232 | 0.0 | 4.8 | 0.00 | 0.00 | 0.00 | 49 | 1008.5 |
| 20260901050506 | 21 | 238 | 0.0 | 0.0 | 0.00 | 0.00 | 0.00 | 47 | 1008.5 |
| 20260901050005 | 21 | 238 | 0.0 | 0.0 | 0.00 | 0.00 | 0.00 | 46 | 1008.5 |
| 20260901045005 | 21 | 260 | 0.0 | 0.0 | 0.00 | 0.00 | 0.00 | 45 | 1008.5 |
| 20260901044506 | 22 | 260 | 0.0 | 0.0 | 0.00 | 0.00 | 0.00 | 44 | 1008.5 |
| 20260901044005 | 22 | 260 | 0.0 | 0.0 | 0.00 | 0.00 | 0.00 | 44 | 1008.5 |
| 20260901043504 | 22 | 260 | 0.0 | 0.0 | 0.00 | 0.00 | 0.00 | 44 | 1008.5 |
| 20260901042505 | 22 | 260 | 0.0 | 0.0 | 0.00 | 0.00 | 0.00 | 44 | 1008.5 |
| 20260901042005 | 22 | 260 | 0.0 | 0.0 | 0.00 | 0.00 | 0.00 | 44 | 1008.5 |
| 20260901041005 | 22 | 260 | 0.0 | 0.0 | 0.00 | 0.00 | 0.00 | 44 | 1008.5 |
| 20260901040504 | 22 | 260 | 0.0 | 0.0 | 0.00 | 0.00 | 0.00 | 43 | 1008.5 |
| 20260901040005 | 22 | 260 | 0.0 | 0.0 | 0.00 | 0.00 | 0.00 | 43 | 1008.5 |
| 20260901035505 | 22 | 260 | 0.0 | 0.0 | 0.00 | 0.00 | 0.00 | 43 | 1008.5 |
| 20260901035005 | 22 | 260 | 0.0 | 0.0 | 0.00 | 0.00 | 0.00 | 43 | 1008.5 |
| 20260901034005 | 22 | 263 | 0.0 | 0.0 | 0.00 | 0.00 | 0.00 | 43 | 1007.5 |
| 20260901033504 | 22 | 262 | 0.0 | 0.0 | 0.00 | 0.00 | 0.00 | 43 | 1007.5 |
| 20260901033005 | 22 | 270 | 0.0 | 0.0 | 0.00 | 0.00 | 0.00 | 42 | 1007.5 |
| 20260901032504 | 22 | 260 | 0.0 | 0.0 | 0.00 | 0.00 | 0.00 | 42 | 1007.5 |
| 20260901032004 | 22 | 260 | 0.0 | 0.0 | 0.00 | 0.00 | 0.00 | 42 | 1007.5 |
| 20260901031505 | 23 | 260 | 0.0 | 0.0 | 0.00 | 0.00 | 0.00 | 42 | 1007.5 |
| 20260901031004 | 23 | 260 | 0.0 | 0.0 | 0.00 | 0.00 | 0.00 | 42 | 1007.5 |
| 20260901030504 | 23 | 260 | 0.0 | 0.0 | 0.00 | 0.00 | 0.00 | 42 | 1007.5 |
| 20260901030004 | 23 | 260 | 0.0 | 0.0 | 0.00 | 0.00 | 0.00 | 41 | 1007.5 |
| 20260901025505 | 24 | 260 | 0.0 | 0.0 | 0.00 | 0.00 | 0.00 | 41 | 1007.5 |
| 20260901025007 | 24 | 260 | 0.0 | 0.0 | 0.00 | 0.00 | 0.00 | 41 | 1007.5 |
| 20260901024504 | 24 | 260 | 0.0 | 0.0 | 0.00 | 0.00 | 0.00 | 41 | 1007.5 |
| 20260901024005 | 25 | 260 | 0.0 | 0.0 | 0.00 | 0.00 | 0.00 | 41 | 1007.5 |
| 20260901023504 | 25 | 257 | 0.0 | 0.0 | 0.00 | 0.00 | 0.00 | 40 | 1007.5 |
| 20260901023005 | 25 | 215 | 0.0 | 0.0 | 0.00 | 0.00 | 0.00 | 40 | 1007.5 |
| 20260901022504 | 25 | 238 | 0.0 | 0.0 | 0.00 | 0.00 | 0.00 | 40 | 1007.5 |
| 20260901022004 | 25 | 260 | 0.0 | 0.0 | 0.00 | 0.00 | 0.00 | 40 | 1007.5 |
| 20260901021504 | 25 | 215 | 0.0 | 0.0 | 0.00 | 0.00 | 0.00 | 40 | 1007.5 |
| 20260901021004 | 26 | 215 | 0.0 | 0.0 | 0.00 | 0.00 | 0.00 | 40 | 1007.5 |
| 20260901020504 | 26 | 227 | 0.0 | 0.0 | 0.00 | 0.00 | 0.00 | 40 | 1007.5 |
| 20260901020004 | 26 | 238 | 0.0 | 0.0 | 0.00 | 0.00 | 0.00 | 40 | 1007.5 |
| 20260901015504 | 26 | 213 | 0.0 | 0.0 | 0.00 | 0.00 | 0.00 | 40 | 1007.5 |
| 20260901015004 | 26 | 184 | 0.0 | 14.5 | 0.00 | 0.00 | 0.00 | 40 | 1007.5 |
| 20260901014504 | 26 | 241 | 0.0 | 14.5 | 0.00 | 0.00 | 0.00 | 40 | 1007.5 |
| 20260901014005 | 26 | 228 | 1.6 | 11.3 | 0.00 | 0.00 | 0.00 | 40 | 1007.5 |
| 20260901013004 | 26 | 220 | 1.6 | 9.7 | 0.00 | 0.00 | 0.00 | 40 | 1007.5 |
| 20260901012004 | 26 | 229 | 3.2 | 11.3 | 0.00 | 0.00 | 0.00 | 40 | 1007.5 |
| 20260901011504 | 26 | 247 | 1.6 | 11.3 | 0.00 | 0.00 | 0.00 | 40 | 1007.5 |
| 20260901011004 | 27 | 233 | 1.6 | 11.3 | 0.00 | 0.00 | 0.00 | 40 | 1007.5 |
| 20260901010504 | 27 | 220 | 1.6 | 9.7 | 0.00 | 0.00 | 0.00 | 40 | 1007.5 |
| 20260901010005 | 27 | 215 | 0.0 | 9.7 | 0.00 | 0.00 | 0.00 | 40 | 1007.5 |
| 20260901005504 | 27 | 191 | 4.8 | 12.9 | 0.00 | 0.00 | 0.00 | 39 | 1007.5 |
| 20260901004505 | 27 | 233 | 1.6 | 14.5 | 0.00 | 0.00 | 0.00 | 40 | 1007.5 |
| 20260901004004 | 27 | 231 | 3.2 | 16.1 | 0.00 | 0.00 | 0.00 | 40 | 1007.5 |
| 20260901003504 | 27 | 230 | 8.0 | 16.1 | 0.00 | 0.00 | 0.00 | 39 | 1007.5 |
| 20260901002504 | 28 | 215 | 0.0 | 12.9 | 0.00 | 0.00 | 0.00 | 39 | 1007.5 |
| 20260901002004 | 28 | 273 | 1.6 | 12.9 | 0.00 | 0.00 | 0.00 | 39 | 1007.5 |
| 20260901001504 | 28 | 192 | 1.6 | 11.3 | 0.00 | 0.00 | 0.00 | 38 | 1007.5 |
| 20260901001004 | 28 | 215 | 3.2 | 11.3 | 0.00 | 0.00 | 0.00 | 37 | 1007.5 |
| 20260901000504 | 28 | 225 | 0.0 | 9.7 | 0.00 | 0.00 | 0.00 | 37 | 1007.5 |
| 20260901000004 | 28 | 215 | 0.0 | 9.7 | 0.00 | 0.00 | 0.00 | 37 | 1007.5 |
| 20260831235004 | 28 | 200 | 0.0 | 24.1 | 0.00 | 0.00 | 0.00 | 37 | 1007.5 |
| 20260831234504 | 29 | 199 | 3.2 | 24.1 | 0.00 | 0.00 | 0.00 | 36 | 1007.5 |
| 20260831234005 | 29 | 214 | 8.0 | 24.1 | 0.00 | 0.00 | 0.00 | 36 | 1007.5 |
| 20260831233504 | 29 | 144 | 8.0 | 20.9 | 0.00 | 0.00 | 0.00 | 38 | 1007.5 |
| 20260831233004 | 29 | 215 | 3.2 | 16.1 | 0.00 | 0.00 | 0.00 | 37 | 1007.5 |
| 20260831232504 | 29 | 222 | 4.8 | 16.1 | 0.00 | 0.00 | 0.00 | 38 | 1008.5 |
| 20260831232004 | 30 | 138 | 3.2 | 16.1 | 0.00 | 0.00 | 0.00 | 39 | 1008.5 |
| 20260831231504 | 30 | 266 | 1.6 | 16.1 | 0.00 | 0.00 | 0.00 | 39 | 1008.5 |
| 20260831231004 | 29 | 267 | 3.2 | 11.3 | 0.00 | 0.00 | 0.00 | 39 | 1007.5 |
| 20260831230504 | 29 | 35 | 0.0 | 12.9 | 0.00 | 0.00 | 0.00 | 39 | 1007.5 |
| 20260831230005 | 29 | 219 | 3.2 | 12.9 | 0.00 | 0.00 | 0.00 | 39 | 1007.5 |
| 20260831225505 | 29 | 205 | 3.2 | 12.9 | 0.00 | 0.00 | 0.00 | 40 | 1008.5 |
| 20260831225004 | 29 | 299 | 0.0 | 4.8 | 0.00 | 0.00 | 0.00 | 40 | 1008.5 |
| 20260831224504 | 30 | 341 | 0.0 | 8.0 | 0.00 | 0.00 | 0.00 | 40 | 1008.5 |
| 20260831224003 | 29 | 35 | 0.0 | 11.3 | 0.00 | 0.00 | 0.00 | 40 | 1008.5 |
| 20260831223505 | 29 | 35 | 1.6 | 11.3 | 0.00 | 0.00 | 0.00 | 40 | 1008.5 |
| 20260831223003 | 29 | 35 | 4.8 | 12.9 | 0.00 | 0.00 | 0.00 | 40 | 1008.5 |
| 20260831222504 | 30 | 43 | 0.0 | 12.9 | 0.00 | 0.00 | 0.00 | 40 | 1008.5 |
| 20260831222004 | 29 | 35 | 3.2 | 11.3 | 0.00 | 0.00 | 0.00 | 40 | 1008.5 |
| 20260831221503 | 29 | 35 | 1.6 | 20.9 | 0.00 | 0.00 | 0.00 | 40 | 1008.5 |
| 20260831221004 | 28 | 133 | 8.0 | 20.9 | 0.00 | 0.00 | 0.00 | 39 | 1008.5 |
| 20260831220504 | 28 | 127 | 0.0 | 16.1 | 0.00 | 0.00 | 0.00 | 40 | 1008.5 |
| 20260831220004 | 28 | 246 | 3.2 | 16.1 | 0.00 | 0.00 | 0.00 | 41 | 1008.5 |
| 20260831215504 | 28 | 117 | 3.2 | 20.9 | 0.00 | 0.00 | 0.00 | 41 | 1008.5 |
| 20260831214504 | 28 | 215 | 4.8 | 24.1 | 0.00 | 0.00 | 0.00 | 41 | 1008.5 |
| 20260831214004 | 28 | 147 | 11.3 | 24.1 | 0.00 | 0.00 | 0.00 | 41 | 1008.5 |
| 20260831213504 | 28 | 187 | 1.6 | 16.1 | 0.00 | 0.00 | 0.00 | 42 | 1008.5 |
| 20260831213003 | 27 | 132 | 6.4 | 12.9 | 0.00 | 0.00 | 0.00 | 41 | 1008.5 |
| 20260831212503 | 27 | 128 | 4.8 | 14.5 | 0.00 | 0.00 | 0.00 | 42 | 1009.5 |
| 20260831212004 | 27 | 41 | 1.6 | 14.5 | 0.00 | 0.00 | 0.00 | 43 | 1009.5 |
| 20260831211504 | 27 | 125 | 4.8 | 14.5 | 0.00 | 0.00 | 0.00 | 43 | 1009.5 |
| 20260831211004 | 27 | 260 | 0.0 | 14.5 | 0.00 | 0.00 | 0.00 | 42 | 1008.5 |
| 20260831210503 | 27 | 63 | 3.2 | 14.5 | 0.00 | 0.00 | 0.00 | 44 | 1008.5 |
| 20260831210004 | 27 | 161 | 8.0 | 14.5 | 0.00 | 0.00 | 0.00 | 45 | 1008.5 |
| 20260831205004 | 26 | 130 | 4.8 | 16.1 | 0.00 | 0.00 | 0.00 | 44 | 1007.5 |
| 20260831204504 | 26 | 3 | 3.2 | 16.1 | 0.00 | 0.00 | 0.00 | 45 | 1007.5 |
| 20260831204003 | 26 | 118 | 1.6 | 11.3 | 0.00 | 0.00 | 0.00 | 46 | 1008.5 |
| 20260831203504 | 26 | 275 | 3.2 | 11.3 | 0.00 | 0.00 | 0.00 | 45 | 1008.5 |
| 20260831203004 | 26 | 301 | 4.8 | 11.3 | 0.00 | 0.00 | 0.00 | 46 | 1008.5 |
| 20260831202504 | 26 | 341 | 3.2 | 11.3 | 0.00 | 0.00 | 0.00 | 47 | 1007.5 |
| 20260831202004 | 26 | 305 | 3.2 | 16.1 | 0.00 | 0.00 | 0.00 | 48 | 1007.5 |
| 20260831201507 | 25 | 305 | 8.0 | 16.1 | 0.00 | 0.00 | 0.00 | 46 | 1007.5 |
| 20260831201007 | 25 | 153 | 0.0 | 16.1 | 0.00 | 0.00 | 0.00 | 48 | 1008.5 |
| 20260831200507 | 25 | 100 | 4.8 | 16.1 | 0.00 | 0.00 | 0.00 | 49 | 1008.5 |
| 20260831200006 | 25 | 75 | 1.6 | 16.1 | 0.00 | 0.00 | 0.00 | 49 | 1008.5 |
| 20260831195506 | 25 | 333 | 1.6 | 20.9 | 0.00 | 0.00 | 0.00 | 49 | 1008.5 |
| 20260831195007 | 25 | 71 | 4.8 | 20.9 | 0.00 | 0.00 | 0.00 | 50 | 1008.5 |
| 20260831194007 | 25 | 117 | 1.6 | 14.5 | 0.00 | 0.00 | 0.00 | 51 | 1008.5 |
| 20260831193507 | 24 | 302 | 3.2 | 14.5 | 0.00 | 0.00 | 0.00 | 51 | 1008.5 |
| 20260831193006 | 24 | 88 | 8.0 | 14.5 | 0.00 | 0.00 | 0.00 | 52 | 1008.5 |
| 20260831192507 | 23 | 49 | 4.8 | 14.5 | 0.00 | 0.00 | 0.00 | 51 | 1008.5 |
| 20260831191506 | 23 | 11 | 4.8 | 14.5 | 0.00 | 0.00 | 0.00 | 51 | 1008.5 |
| 20260831191007 | 23 | 120 | 4.8 | 16.1 | 0.00 | 0.00 | 0.00 | 50 | 1009.5 |
| 20260831185508 | 23 | 82 | 8.0 | 22.5 | 0.00 | 0.00 | 0.00 | 54 | 1009.5 |
| 20260831185006 | 23 | 137 | 6.4 | 20.9 | 0.00 | 0.00 | 0.00 | 54 | 1009.5 |
| 20260831184506 | 22 | 181 | 8.0 | 20.9 | 0.00 | 0.00 | 0.00 | 57 | 1009.5 |
| 20260831184007 | 22 | 52 | 6.4 | 20.9 | 0.00 | 0.00 | 0.00 | 58 | 1009.5 |
| 20260831183507 | 22 | 76 | 1.6 | 14.5 | 0.00 | 0.00 | 0.00 | 58 | 1009.5 |
| 20260831182506 | 21 | 110 | 8.0 | 16.1 | 0.00 | 0.00 | 0.00 | 57 | 1009.5 |
| 20260831181007 | 21 | 79 | 1.6 | 20.9 | 0.00 | 0.00 | 0.00 | 63 | 1009.5 |
| 20260831180007 | 21 | 125 | 3.2 | 16.1 | 0.00 | 0.00 | 0.00 | 62 | 1009.5 |
| 20260831175507 | 20 | 66 | 6.4 | 12.9 | 0.00 | 0.00 | 0.00 | 64 | 1009.5 |
| 20260831174506 | 20 | 86 | 1.6 | 14.5 | 0.00 | 0.00 | 0.00 | 66 | 1009.5 |
| 20260831174006 | 20 | 314 | 0.0 | 12.9 | 0.00 | 0.00 | 0.00 | 68 | 1009.5 |
| 20260831173507 | 19 | 104 | 1.6 | 11.3 | 0.00 | 0.00 | 0.00 | 68 | 1009.5 |
| 20260831173006 | 19 | 157 | 3.2 | 12.9 | 0.00 | 0.00 | 0.00 | 70 | 1009.5 |
| 20260831172506 | 18 | 84 | 3.2 | 12.9 | 0.00 | 0.00 | 0.00 | 70 | 1010.5 |
| 20260831172006 | 18 | 284 | 0.0 | 16.1 | 0.00 | 0.00 | 0.00 | 71 | 1010.5 |
| 20260831171506 | 18 | 73 | 1.6 | 16.1 | 0.00 | 0.00 | 0.00 | 72 | 1010.5 |
| 20260831171006 | 18 | 96 | 0.0 | 12.9 | 0.00 | 0.00 | 0.00 | 72 | 1010.5 |
| 20260831170506 | 18 | 123 | 1.6 | 12.9 | 0.00 | 0.00 | 0.00 | 73 | 1010.5 |
| 20260831170006 | 18 | 45 | 1.6 | 9.7 | 0.00 | 0.00 | 0.00 | 75 | 1010.5 |
| 20260831165507 | 17 | 79 | 0.0 | 0.0 | 0.00 | 0.00 | 0.00 | 77 | 1010.5 |
| 20260831165007 | 17 | 8 | 0.0 | 0.0 | 0.00 | 0.00 | 0.00 | 78 | 1010.5 |
| 20260831164506 | 17 | 26 | 0.0 | 0.0 | 0.00 | 0.00 | 0.00 | 78 | 1010.5 |
| 20260831164006 | 17 | 305 | 0.0 | 0.0 | 0.00 | 0.00 | 0.00 | 79 | 1010.5 |
| 20260831163506 | 16 | 350 | 0.0 | 8.0 | 0.00 | 0.00 | 0.00 | 80 | 1010.5 |
| 20260831163006 | 16 | 90 | 3.2 | 8.0 | 0.00 | 0.00 | 0.00 | 81 | 1010.5 |
| 20260831162506 | 16 | 35 | 0.0 | 0.0 | 0.00 | 0.00 | 0.00 | 82 | 1010.5 |
| 20260831162006 | 16 | 58 | 3.2 | 0.0 | 0.00 | 0.00 | 0.00 | 82 | 1010.5 |
| 20260831161507 | 16 | 77 | 0.0 | 0.0 | 0.00 | 0.00 | 0.00 | 83 | 1010.5 |
| 20260831160506 | 15 | 148 | 0.0 | 0.0 | 0.00 | 0.00 | 0.00 | 84 | 1010.5 |
| 20260831160007 | 15 | 35 | 0.0 | 0.0 | 0.00 | 0.00 | 0.00 | 86 | 1010.5 |
| 20260831155507 | 15 | 35 | 0.0 | 0.0 | 0.00 | 0.00 | 0.00 | 87 | 1010.5 |
| 20260831155006 | 15 | 57 | 0.0 | 8.0 | 0.00 | 0.00 | 0.00 | 87 | 1010.5 |
| 20260831154506 | 15 | 35 | 0.0 | 8.0 | 0.00 | 0.00 | 0.00 | 88 | 1010.5 |
| 20260831153506 | 14 | 148 | 0.0 | 4.8 | 0.00 | 0.00 | 0.00 | 89 | 1010.5 |
| 20260831153006 | 14 | 35 | 0.0 | 4.8 | 0.00 | 0.00 | 0.00 | 89 | 1010.5 |
| 20260831152507 | 14 | 139 | 0.0 | 9.7 | 0.00 | 0.00 | 0.00 | 89 | 1010.5 |
| 20260831152006 | 13 | 161 | 0.0 | 9.7 | 0.00 | 0.00 | 0.00 | 90 | 1010.5 |
| 20260831151506 | 13 | 215 | 0.0 | 9.7 | 0.00 | 0.00 | 0.00 | 90 | 1010.5 |
| 20260831151006 | 13 | 35 | 0.0 | 0.0 | 0.00 | 0.00 | 0.00 | 91 | 1010.5 |
| 20260831150506 | 13 | 35 | 0.0 | 0.0 | 0.00 | 0.00 | 0.00 | 91 | 1010.5 |
| 20260831150006 | 13 | 35 | 0.0 | 0.0 | 0.00 | 0.00 | 0.00 | 92 | 1010.5 |
| 20260831145510 | 13 | 35 | 0.0 | 9.7 | 0.00 | 0.00 | 0.00 | 92 | 1010.5 |
| 20260831145006 | 13 | 92 | 0.0 | 9.7 | 0.00 | 0.00 | 0.00 | 92 | 1010.5 |
| 20260831144006 | 12 | 35 | 0.0 | 0.0 | 0.00 | 0.00 | 0.00 | 93 | 1010.5 |
| 20260831143505 | 12 | 100 | 0.0 | 0.0 | 0.00 | 0.00 | 0.00 | 93 | 1010.5 |
| 20260831143007 | 12 | 35 | 0.0 | 0.0 | 0.00 | 0.00 | 0.00 | 93 | 1010.5 |
| 20260831142506 | 12 | 37 | 0.0 | 0.0 | 0.00 | 0.00 | 0.00 | 93 | 1010.5 |
| 20260831142006 | 12 | 43 | 0.0 | 0.0 | 0.00 | 0.00 | 0.00 | 92 | 1010.5 |
| 20260831141506 | 11 | 39 | 0.0 | 0.0 | 0.00 | 0.00 | 0.00 | 93 | 1010.5 |
| 20260831140506 | 11 | 80 | 0.0 | 0.0 | 0.00 | 0.00 | 0.00 | 92 | 1010.5 |
| 20260831140006 | 11 | 80 | 0.0 | 0.0 | 0.00 | 0.00 | 0.00 | 92 | 1010.5 |
| 20260831135506 | 11 | 58 | 0.0 | 0.0 | 0.00 | 0.00 | 0.00 | 92 | 1010.5 |
| 20260831134505 | 11 | 58 | 0.0 | 0.0 | 0.00 | 0.00 | 0.00 | 92 | 1010.5 |
| 20260831134006 | 11 | 58 | 0.0 | 0.0 | 0.00 | 0.00 | 0.00 | 92 | 1010.5 |
| 20260831133505 | 11 | 58 | 0.0 | 0.0 | 0.00 | 0.00 | 0.00 | 92 | 1010.5 |
| 20260831133006 | 11 | 58 | 0.0 | 0.0 | 0.00 | 0.00 | 0.00 | 91 | 1010.5 |
| 20260831132006 | 11 | 58 | 0.0 | 0.0 | 0.00 | 0.00 | 0.00 | 91 | 1010.5 |
| 20260831130506 | 11 | 102 | 0.0 | 0.0 | 0.00 | 0.00 | 0.00 | 91 | 1010.5 |
| 20260831130006 | 11 | 102 | 0.0 | 0.0 | 0.00 | 0.00 | 0.00 | 90 | 1010.5 |
| 20260831125506 | 11 | 139 | 0.0 | 0.0 | 0.00 | 0.00 | 0.00 | 90 | 1010.5 |
| 20260831125006 | 11 | 80 | 0.0 | 0.0 | 0.00 | 0.00 | 0.00 | 90 | 1010.5 |
| 20260831124506 | 12 | 80 | 0.0 | 0.0 | 0.00 | 0.00 | 0.00 | 90 | 1010.5 |
| 20260831124006 | 12 | 80 | 0.0 | 0.0 | 0.00 | 0.00 | 0.00 | 89 | 1010.5 |
| 20260831123006 | 12 | 80 | 0.0 | 0.0 | 0.00 | 0.00 | 0.00 | 89 | 1010.5 |
| 20260831122505 | 12 | 125 | 0.0 | 0.0 | 0.00 | 0.00 | 0.00 | 89 | 1010.5 |
| 20260831122006 | 12 | 80 | 0.0 | 0.0 | 0.00 | 0.00 | 0.00 | 89 | 1010.5 |
| 20260831121506 | 12 | 102 | 0.0 | 0.0 | 0.00 | 0.00 | 0.00 | 89 | 1010.5 |
| 20260831121006 | 12 | 102 | 0.0 | 0.0 | 0.00 | 0.00 | 0.00 | 89 | 1011.5 |
| 20260831120506 | 12 | 102 | 0.0 | 0.0 | 0.00 | 0.00 | 0.00 | 89 | 1011.5 |
| 20260831120006 | 12 | 102 | 0.0 | 0.0 | 0.00 | 0.00 | 0.00 | 89 | 1011.5 |
| 20260831115505 | 12 | 102 | 0.0 | 0.0 | 0.00 | 0.00 | 0.00 | 88 | 1011.5 |
| 20260831114506 | 12 | 102 | 0.0 | 0.0 | 0.00 | 0.00 | 0.00 | 88 | 1011.5 |
| 20260831114005 | 12 | 102 | 0.0 | 0.0 | 0.00 | 0.00 | 0.00 | 88 | 1012.5 |
| 20260831113505 | 12 | 102 | 0.0 | 0.0 | 0.00 | 0.00 | 0.00 | 88 | 1012.5 |
| 20260831113006 | 12 | 170 | 0.0 | 0.0 | 0.00 | 0.00 | 0.00 | 88 | 1012.5 |
| 20260831112505 | 12 | 170 | 0.0 | 0.0 | 0.00 | 0.00 | 0.00 | 87 | 1011.5 |
| 20260831112006 | 12 | 170 | 0.0 | 0.0 | 0.00 | 0.00 | 0.00 | 87 | 1011.5 |
| 20260831111506 | 12 | 170 | 0.0 | 0.0 | 0.00 | 0.00 | 0.00 | 87 | 1011.5 |
| 20260831110506 | 12 | 170 | 0.0 | 0.0 | 0.00 | 0.00 | 0.00 | 86 | 1012.5 |
| 20260831105506 | 13 | 170 | 0.0 | 0.0 | 0.00 | 0.00 | 0.00 | 86 | 1012.5 |
| 20260831105005 | 13 | 170 | 0.0 | 0.0 | 0.00 | 0.00 | 0.00 | 85 | 1012.5 |
| 20260831104506 | 13 | 215 | 0.0 | 0.0 | 0.00 | 0.00 | 0.00 | 85 | 1012.5 |
| 20260831104005 | 13 | 192 | 0.0 | 0.0 | 0.00 | 0.00 | 0.00 | 85 | 1012.5 |
| 20260831103506 | 13 | 192 | 0.0 | 0.0 | 0.00 | 0.00 | 0.00 | 85 | 1012.5 |
| 20260831102506 | 13 | 192 | 0.0 | 0.0 | 0.00 | 0.00 | 0.00 | 84 | 1012.5 |
| 20260831102006 | 13 | 192 | 0.0 | 0.0 | 0.00 | 0.00 | 0.00 | 84 | 1012.5 |
| 20260831101505 | 13 | 102 | 0.0 | 0.0 | 0.00 | 0.00 | 0.00 | 84 | 1012.5 |
| 20260831101006 | 13 | 102 | 0.0 | 0.0 | 0.00 | 0.00 | 0.00 | 84 | 1012.5 |
| 20260831100506 | 13 | 102 | 0.0 | 0.0 | 0.00 | 0.00 | 0.00 | 84 | 1012.5 |
| 20260831100006 | 13 | 102 | 0.0 | 0.0 | 0.00 | 0.00 | 0.00 | 84 | 1012.5 |
| 20260831095505 | 13 | 192 | 0.0 | 0.0 | 0.00 | 0.00 | 0.00 | 83 | 1012.5 |
| 20260831095005 | 13 | 192 | 0.0 | 0.0 | 0.00 | 0.00 | 0.00 | 83 | 1012.5 |
| 20260831094505 | 13 | 192 | 0.0 | 0.0 | 0.00 | 0.00 | 0.00 | 83 | 1012.5 |
| 20260831094005 | 13 | 192 | 0.0 | 0.0 | 0.00 | 0.00 | 0.00 | 83 | 1012.5 |
| 20260831093505 | 13 | 192 | 0.0 | 0.0 | 0.00 | 0.00 | 0.00 | 83 | 1012.5 |
| 20260831093005 | 13 | 192 | 0.0 | 0.0 | 0.00 | 0.00 | 0.00 | 83 | 1012.5 |
| 20260831092005 | 13 | 192 | 0.0 | 0.0 | 0.00 | 0.00 | 0.00 | 82 | 1012.5 |
| 20260831091505 | 13 | 192 | 0.0 | 0.0 | 0.00 | 0.00 | 0.00 | 82 | 1012.5 |
| 20260831090005 | 13 | 192 | 0.0 | 0.0 | 0.00 | 0.00 | 0.00 | 81 | 1011.5 |
| 20260831085505 | 13 | 170 | 0.0 | 0.0 | 0.00 | 0.00 | 0.00 | 81 | 1012.5 |
| 20260831085006 | 14 | 170 | 0.0 | 0.0 | 0.00 | 0.00 | 0.00 | 81 | 1012.5 |
| 20260831084505 | 14 | 170 | 0.0 | 0.0 | 0.00 | 0.00 | 0.00 | 80 | 1012.5 |
| 20260831084005 | 14 | 170 | 0.0 | 0.0 | 0.00 | 0.00 | 0.00 | 80 | 1012.5 |
| 20260831083505 | 14 | 85 | 0.0 | 0.0 | 0.00 | 0.00 | 0.00 | 80 | 1012.5 |
| 20260831082505 | 14 | 238 | 0.0 | 0.0 | 0.00 | 0.00 | 0.00 | 79 | 1013.5 |
| 20260831082005 | 14 | 238 | 0.0 | 0.0 | 0.00 | 0.00 | 0.00 | 79 | 1013.5 |
| 20260831081505 | 14 | 238 | 0.0 | 0.0 | 0.00 | 0.00 | 0.00 | 79 | 1013.5 |
| 20260831081005 | 14 | 238 | 0.0 | 0.0 | 0.00 | 0.00 | 0.00 | 79 | 1013.5 |
| 20260831080505 | 14 | 238 | 0.0 | 0.0 | 0.00 | 0.00 | 0.00 | 78 | 1013.5 |
| 20260831080005 | 14 | 238 | 0.0 | 0.0 | 0.00 | 0.00 | 0.00 | 78 | 1013.5 |
| 20260831075505 | 14 | 238 | 0.0 | 0.0 | 0.00 | 0.00 | 0.00 | 78 | 1013.5 |
| 20260831075005 | 14 | 238 | 0.0 | 0.0 | 0.00 | 0.00 | 0.00 | 78 | 1013.5 |
| 20260831074505 | 14 | 238 | 0.0 | 0.0 | 0.00 | 0.00 | 0.00 | 78 | 1013.5 |
| 20260831074006 | 15 | 238 | 0.0 | 0.0 | 0.00 | 0.00 | 0.00 | 77 | 1013.5 |
| 20260831073506 | 15 | 238 | 0.0 | 0.0 | 0.00 | 0.00 | 0.00 | 77 | 1013.5 |
| 20260831073005 | 15 | 238 | 0.0 | 0.0 | 0.00 | 0.00 | 0.00 | 77 | 1013.5 |
| 20260831072505 | 15 | 238 | 0.0 | 0.0 | 0.00 | 0.00 | 0.00 | 76 | 1014.5 |
| 20260831072005 | 15 | 238 | 0.0 | 0.0 | 0.00 | 0.00 | 0.00 | 75 | 1014.5 |
| 20260831071505 | 15 | 238 | 0.0 | 0.0 | 0.00 | 0.00 | 0.00 | 75 | 1014.5 |
| 20260831071006 | 15 | 238 | 0.0 | 0.0 | 0.00 | 0.00 | 0.00 | 75 | 1014.5 |
| 20260831065505 | 15 | 238 | 0.0 | 0.0 | 0.00 | 0.00 | 0.00 | 74 | 1014.5 |
| 20260831065005 | 15 | 238 | 0.0 | 0.0 | 0.00 | 0.00 | 0.00 | 74 | 1014.5 |
| 20260831064005 | 15 | 170 | 0.0 | 0.0 | 0.00 | 0.00 | 0.00 | 74 | 1014.5 |
| 20260831063505 | 15 | 201 | 0.0 | 0.0 | 0.00 | 0.00 | 0.00 | 73 | 1014.5 |